Flag for Germany Weather past 2 weeks in Mönchengladbach, North Rhine-Westphalia, Germany

Now
72 °F

Passing clouds.


Feels Like: 72 °F
Forecast: 58 / 74 °F
Wind: 2 mph from North

Location: Monchengladbach Airport

Current Time: Sep 19, 2014 at 8:00:27 PM

Latest Report: Sep 19, 2014 at 7:20 PM


Visibility: N/A

Pressure: 29.86 "Hg

Humidity: 78%

Dew point: 64 °F

Location of MönchengladbachLocation

Historic Weather in Mönchengladbach — Graph

°F

Mönchengladbach temperature yesterday

Maximum temperature yesterday: 70 °F (at 2:50 PM)
Minimum temperature yesterday: 61 °F (at 7:50 AM)
Average temperature yesterday: 66 °F

Past Weeks' High & Low Weather Summary

 TemperatureHumidityPressure
High77 °F (Sep 5, 4:50 PM)100% (Sep 5, 8:20 AM)30.24 "Hg (Sep 5, 8:20 AM)
Low48 °F (Sep 12, 7:50 AM)47% (Sep 17, 5:50 PM)29.80 "Hg (Sep 18, 7:50 PM)
Average66 °F75%30.02 "Hg
* Reported Sep 4 6:20 PM — Sep 19 6:50 PM, Mönchengladbach, Weather by CustomWeather, © 2014

Note: Actual official high and low records may vary slightly from our data, if they occured in-between our weather recording intervals... More about our weather records

Advertising

Mönchengladbach weather history for previous 24 hours

 ConditionsComfort  
Time TempWeatherWind HumidityBarometerVisibility
6:50 PM
Sep 19
73 °FPassing clouds.2 mph74%29.86 "HgN/A
6:20 PM75 °FPassing clouds.3 mph65%29.86 "HgN/A
5:50 PM77 °FPassing clouds.3 mph65%29.86 "HgN/A
5:20 PM77 °FPassing clouds.3 mph65%29.86 "HgN/A
4:50 PM77 °FPassing clouds.6 mph61%29.86 "HgN/A
4:20 PM77 °FPassing clouds.3 mph61%29.86 "HgN/A
3:50 PM75 °FPassing clouds.3 mph65%29.86 "HgN/A
3:20 PM75 °FPassing clouds.6 mph69%29.86 "HgN/A
2:50 PM75 °FPassing clouds.3 mph65%29.86 "HgN/A
2:20 PM75 °FPassing clouds.3 mph69%29.86 "HgN/A
1:50 PM73 °FPassing clouds.3 mph74%29.86 "HgN/A
1:20 PM72 °FPassing clouds.5 mph78%29.86 "HgN/A
12:50 PM72 °FClear.2 mph73%29.86 "Hg10 mi
12:20 PM72 °FClear.3 mph73%29.86 "Hg10 mi
11:50 AM70 °FSunny.3 mph78%29.86 "Hg10 mi
11:20 AM70 °FPassing clouds.2 mph83%29.86 "HgN/A
10:50 AM68 °FPassing clouds.5 mph83%29.86 "HgN/A
10:20 AM68 °FPassing clouds.5 mph83%29.86 "HgN/A
9:50 AM66 °FPartly sunny.2 mph94%29.86 "HgN/A
9:20 AM64 °FSunny.2 mph100%29.86 "Hg10 mi
8:50 AM61 °FClear.1 mph100%29.86 "Hg4 mi
8:20 AM59 °FFog.3 mph100%29.86 "Hg2 mi
7:50 AM59 °FLight fog.2 mph100%29.83 "Hg1 mi
8:20 PM
Sep 18
66 °FThunderstorms. Passing clouds.9 mph100%29.83 "Hg3 mi
Weather by CustomWeather, © 2014

See weather overviewHow to use our weather pages